Wind_Speed
11 11 11 11 12 12 12 12 12 12 12 13 13 14 14 14 13 14 14 14 14 14 14 14 13 14 14 14 13 13 14 14 14 14 14 13 12 11 9 8 6 5 5
13 13 13 13 14 14 14 15 15 15 15 15 15 15 16 15 15 15 15 15 15 15 15 15 14 14 14 14 14 13 13 14 14 14 14 14 13 13 11 9 8 6 5
15 15 15 15 16 16 17 18 18 18 18 18 18 17 17 17 17 17 17 17 17 16 16 16 15 15 15 15 14 14 14 14 14 14 14 14 14 14 13 11 10 8 6
17 17 17 18 18 19 20 21 22 23 22 22 21 20 19 19 19 19 19 19 19 18 18 17 17 16 15 15 15 14 14 14 14 14 14 14 14 14 14 13 11 10 8
18 19 19 20 21 21 22 23 24 25 25 24 24 23 22 21 21 21 21 21 21 20 20 19 18 17 17 16 15 15 14 13 13 13 14 14 14 14 13 13 12 11 9
19 20 20 21 22 22 23 24 25 27 27 27 26 26 25 24 24 24 23 23 23 23 22 21 20 19 18 17 16 15 14 13 13 13 13 14 14 13 13 13 12 11 10
20 20 20 21 21 23 24 24 25 27 28 28 28 28 28 28 27 26 25 24 24 24 23 23 22 20 19 18 16 15 14 13 13 13 13 13 13 13 13 13 12 11 11
19 19 19 20 21 22 22 23 24 25 26 27 28 29 30 30 30 29 28 27 26 25 25 24 23 22 20 19 17 16 15 14 13 13 13 13 13 12 12 12 12 12 11
17 17 18 18 19 19 20 21 22 23 24 25 26 28 29 30 31 31 31 30 28 27 28 26 25 23 22 20 19 17 16 15 14 13 12 12 12 12 12 12 12 11 11
16 16 17 17 17 18 18 19 19 20 21 22 23 24 26 28 29 31 32 31 30 29 28 27 26 25 24 21 20 18 17 16 15 14 13 12 12 12 12 12 12 12 12
15 15 15 16 17 17 17 17 18 19 19 20 21 22 23 26 27 29 30 30 31 30 28 28 26 27 26 24 21 20 18 17 16 15 14 13 13 13 13 13 13 13 12
13 13 14 15 15 16 16 16 17 17 18 18 19 20 21 23 25 27 28 28 29 30 29 28 27 26 26 25 23 20 19 17 16 16 15 14 14 13 13 13 13 13 13
12 12 12 13 14 15 15 15 16 16 17 17 18 19 20 21 22 23 24 26 27 28 29 28 28 27 26 25 24 22 21 20 17 17 16 15 15 14 14 14 14 14 14
10 10 11 12 13 13 14 15 15 16 16 16 16 17 17 18 19 20 22 24 25 26 27 28 28 27 26 25 24 23 21 21 19 19 17 16 15 15 14 14 14 14 15
9 9 10 11 12 13 13 14 15 15 15 15 16 16 16 16 17 18 19 20 22 24 25 26 27 27 25 25 24 23 23 22 20 20 18 17 16 15 15 14 14 15 15
7 8 9 10 12 13 14 14 15 15 15 15 15 15 15 15 15 15 17 18 19 21 23 25 26 27 26 26 26 25 24 24 22 21 20 19 17 16 15 15 15 15 15
6 7 8 10 12 13 14 15 15 15 16 16 15 14 13 12 12 13 14 15 17 19 20 23 25 26 26 26 26 26 25 24 24 23 22 20 19 18 17 16 16 16 16
6 7 8 10 11 13 14 14 15 15 16 16 15 14 12 10 9 10 11 13 15 17 18 21 24 25 25 26 26 26 26 26 25 24 24 22 21 20 18 17 16 16 17
5 7 8 10 11 12 13 14 15 16 16 16 15 14 12 9 8 8 9 11 12 14 15 17 21 24 24 25 26 26 26 26 27 25 24 24 22 21 20 19 18 17 17
5 6 8 9 11 12 13 14 15 16 16 16 15 14 12 10 8 6 7 8 9 11 13 15 18 21 22 23 23 23 25 26 26 26 26 26 25 23 21 20 20 19 18
5 6 7 9 10 12 13 14 15 16 16 16 15 14 12 10 9 7 5 6 6 8 10 13 16 19 20 21 22 22 23 24 25 26 26 26 26 25 24 23 22 20 20
5 6 7 8 10 11 12 14 15 15 16 16 16 15 13 11 9 7 6 4 4 6 8 10 13 15 18 20 20 21 22 23 24 26 26 26 26 27 27 26 24 23 22
5 5 7 8 9 11 12 13 14 15 16 16 16 15 14 13 11 9 6 4 2 2 4 7 10 13 15 17 19 20 22 23 24 25 26 26 26 26 27 27 26 25 25
5 5 7 8 9 10 11 12 13 14 15 15 15 15 15 14 12 10 8 6 4 1 1 4 6 9 12 15 17 19 20 22 23 24 25 26 25 26 27 27 28 28 27
5 5 7 8 9 10 11 12 13 13 14 14 15 15 15 14 13 12 10 8 6 3 1 1 3 6 8 11 14 16 18 20 22 23 24 25 26 26 27 27 28 29 29
5 5 6 7 9 10 10 11 12 12 13 13 14 14 14 14 13 12 11 10 8 6 3 1 1 3 6 8 11 13 16 18 20 21 22 23 24 25 26 27 28 30 30
Wind_Direction
302 299 297 294 293 290 285 280 279 276 271 266 263 258 254 249 245 242 238 235 233 230 231 232 233 234 236 237 240 242 242 240 240 239 240 241 243 246 253 262 278 298 319
297 295 293 290 288 286 284 282 281 277 272 269 265 262 257 252 248 244 241 239 237 234 233 233 235 237 238 238 240 243 243 242 242 240 238 239 241 244 247 255 266 278 292
296 293 292 291 287 285 282 281 280 277 274 270 267 264 259 254 251 247 243 241 239 238 237 235 235 237 238 238 240 242 243 243 244 242 240 239 240 242 245 250 257 264 272
295 292 291 290 287 284 282 280 279 278 276 273 270 268 263 258 254 250 246 243 240 239 238 238 237 236 237 238 240 241 241 241 242 242 240 239 240 241 242 245 249 253 257
296 295 293 290 288 286 283 280 278 277 275 274 271 269 265 261 258 253 249 246 242 240 239 237 236 235 235 236 237 239 239 239 239 239 238 238 239 239 239 240 242 244 245
300 299 297 294 291 288 284 280 277 275 273 273 270 267 266 264 261 257 253 249 244 242 240 239 236 234 234 235 236 236 236 236 237 237 236 235 235 234 234 234 237 236 235
303 302 299 297 295 292 288 283 278 274 273 271 269 267 267 265 261 259 256 252 246 243 241 240 238 234 233 233 234 234 233 235 237 236 234 233 232 231 231 232 230 229 228
307 306 304 302 300 297 292 289 284 279 276 273 271 269 268 265 262 259 256 255 251 246 242 241 238 234 233 232 231 231 232 233 234 235 232 230 228 228 228 227 225 223 223
311 311 310 308 307 303 299 296 292 287 283 278 275 271 268 265 263 259 255 253 252 249 244 241 240 235 231 231 230 229 232 232 233 233 229 226 225 223 222 221 221 218 216
314 315 315 315 313 310 307 303 298 292 288 283 279 275 269 266 262 259 255 252 251 249 246 243 240 236 232 230 230 229 231 232 232 230 226 222 221 218 217 215 216 211 209
319 319 317 316 314 312 310 307 304 300 294 288 283 279 272 266 262 259 256 252 249 248 248 245 241 238 236 232 230 228 231 234 229 227 224 219 216 214 212 212 211 209 207
321 321 320 320 319 318 317 315 312 307 302 295 288 283 278 271 266 262 255 252 249 248 247 245 241 238 237 234 229 228 229 229 229 225 222 217 214 213 211 211 210 209 207
324 326 328 328 328 328 327 324 320 316 310 303 296 289 282 276 270 264 259 254 250 247 246 244 242 239 237 234 231 229 229 228 227 222 221 216 213 212 212 212 211 209 205
328 332 334 334 335 336 335 332 328 324 318 310 303 297 289 281 272 265 260 256 251 247 245 243 241 238 237 234 231 229 228 225 226 222 218 215 213 211 212 211 210 209 203
335 340 342 342 344 344 342 339 336 332 328 322 312 303 294 285 275 266 260 257 252 248 244 240 239 237 234 231 228 226 223 221 223 221 217 214 213 212 211 209 210 205 203
341 345 347 350 352 351 350 348 346 342 338 332 324 313 301 289 278 269 262 258 254 249 244 238 235 233 233 230 227 224 221 221 221 223 216 214 214 212 209 209 208 206 204
345 350 352 355 355 355 355 353 352 349 347 345 339 329 316 301 285 271 263 258 255 250 243 238 232 231 231 227 223 222 221 222 222 220 215 215 214 214 211 210 210 208 206
343 348 352 355 356 358 358 357 357 356 354 353 350 343 333 318 299 280 266 260 255 250 242 237 233 230 229 225 220 219 221 221 220 218 217 216 215 214 214 213 213 210 208
336 343 349 354 358 1 2 1 1 0 360 358 356 353 346 335 316 292 275 264 256 249 241 235 231 231 230 227 222 220 220 220 221 219 218 217 216 215 215 215 215 211 210
329 339 348 355 360 2 3 4 4 4 3 2 1 0 357 349 336 313 290 273 260 248 238 230 227 227 228 227 224 221 219 220 221 220 219 220 219 217 217 217 216 214 213
323 336 347 355 360 3 5 6 7 7 7 7 6 5 5 1 352 336 313 289 267 249 238 230 227 224 225 224 224 225 222 221 221 219 219 219 219 219 219 219 216 217 217
314 331 344 353 358 2 4 6 8 9 9 11 12 11 10 9 5 356 343 320 286 256 239 229 225 224 225 225 226 228 227 225 223 222 221 221 221 221 221 222 222 220 220
304 325 339 349 355 359 2 6 8 9 10 12 14 16 16 17 16 14 10 1 336 265 239 228 223 223 225 226 226 226 226 228 227 225 224 224 224 224 225 225 224 223 222
297 317 332 344 351 355 358 2 5 8 10 13 15 17 20 22 22 22 21 21 21 15 236 224 222 224 224 224 225 226 226 226 227 227 227 225 226 226 226 228 227 225 225
292 313 329 339 346 351 355 359 3 6 10 13 15 17 20 23 26 28 30 31 34 38 48 205 215 224 228 224 224 225 224 223 224 226 227 227 229 229 230 231 231 229 228
288 308 325 337 344 348 352 356 360 4 8 12 15 18 20 23 25 28 31 33 36 40 44 72 199 221 229 230 227 226 225 223 225 226 226 227 230 231 232 233 233 233 232
Height
5883 5882 5881 5880 5879 5878 5877 5877 5876 5875 5875 5875 5874 5874 5874 5874 5873 5873 5873 5873 5873 5873 5874 5874 5874 5875 5875 5876 5876 5877 5877 5878 5878 5879 5880 5880 5881 5882 5882 5882 5882 5883 5882
5881 5880 5879 5878 5877 5876 5875 5874 5874 5873 5872 5872 5871 5871 5871 5871 5871 5871 5871 5871 5871 5871 5871 5871 5872 5872 5873 5873 5874 5874 5875 5875 5876 5876 5877 5878 5879 5880 5881 5881 5881 5882 5882
5879 5877 5876 5875 5874 5873 5872 5871 5870 5869 5869 5868 5868 5868 5867 5867 5867 5867 5867 5868 5868 5868 5868 5869 5869 5869 5870 5871 5871 5872 5872 5873 5873 5874 5875 5876 5876 5877 5879 5879 5880 5880 5881
5875 5874 5873 5871 5870 5869 5868 5867 5866 5865 5864 5863 5863 5863 5863 5864 5863 5863 5864 5864 5864 5864 5865 5866 5866 5866 5867 5868 5868 5869 5869 5870 5871 5871 5872 5873 5874 5875 5876 5877 5878 5879 5880
5872 5870 5869 5868 5866 5865 5864 5863 5862 5861 5859 5858 5858 5858 5858 5858 5859 5859 5859 5860 5860 5860 5861 5862 5862 5863 5864 5864 5865 5866 5867 5867 5868 5869 5869 5870 5872 5873 5874 5875 5876 5877 5878
5869 5867 5865 5863 5862 5860 5859 5858 5857 5855 5854 5853 5853 5852 5852 5853 5853 5854 5854 5855 5855 5856 5857 5858 5858 5859 5860 5861 5862 5863 5864 5865 5865 5866 5867 5868 5869 5870 5872 5873 5874 5875 5876
5865 5863 5861 5859 5857 5855 5854 5852 5851 5850 5848 5847 5847 5846 5846 5847 5847 5848 5849 5849 5850 5851 5852 5853 5854 5855 5856 5858 5859 5860 5861 5862 5863 5863 5864 5865 5867 5868 5869 5870 5872 5873 5874
5861 5859 5857 5855 5853 5851 5849 5847 5845 5844 5842 5841 5841 5840 5840 5840 5841 5842 5842 5843 5844 5845 5846 5848 5849 5850 5852 5854 5855 5857 5858 5859 5860 5861 5862 5863 5864 5865 5867 5868 5869 5871 5872
5858 5856 5853 5851 5849 5847 5844 5842 5840 5839 5837 5836 5835 5834 5834 5834 5834 5835 5836 5837 5838 5839 5841 5842 5844 5846 5847 5849 5851 5853 5855 5856 5857 5858 5859 5860 5862 5863 5864 5866 5867 5869 5870
5855 5853 5851 5848 5846 5843 5841 5838 5836 5834 5832 5830 5829 5828 5827 5827 5827 5827 5829 5830 5831 5833 5834 5837 5839 5841 5843 5845 5847 5849 5851 5853 5854 5855 5857 5858 5859 5861 5862 5864 5865 5867 5868
5853 5851 5848 5846 5843 5840 5838 5835 5832 5830 5828 5826 5824 5823 5822 5821 5821 5821 5822 5823 5825 5826 5828 5831 5833 5836 5838 5840 5842 5845 5847 5849 5851 5853 5854 5856 5857 5858 5860 5861 5863 5865 5866
5851 5849 5846 5843 5841 5838 5835 5832 5829 5826 5824 5821 5819 5818 5816 5815 5815 5814 5815 5816 5818 5820 5822 5824 5827 5829 5832 5835 5837 5840 5843 5845 5848 5850 5851 5853 5854 5856 5857 5859 5861 5863 5864
5849 5847 5844 5841 5839 5836 5832 5829 5826 5823 5820 5818 5815 5813 5811 5810 5809 5809 5809 5810 5812 5814 5816 5819 5821 5824 5827 5829 5833 5836 5839 5841 5844 5846 5848 5850 5852 5854 5855 5857 5859 5860 5862
5847 5845 5843 5840 5837 5834 5830 5827 5824 5820 5817 5814 5811 5809 5807 5805 5804 5804 5804 5805 5806 5808 5810 5813 5816 5819 5822 5825 5828 5831 5834 5837 5840 5843 5845 5847 5849 5851 5853 5854 5856 5858 5860
5846 5844 5842 5839 5836 5832 5829 5825 5822 5818 5815 5811 5808 5805 5802 5801 5800 5799 5799 5800 5801 5802 5805 5807 5811 5814 5817 5820 5824 5827 5831 5834 5837 5839 5842 5845 5847 5849 5850 5852 5854 5856 5858
5845 5843 5841 5838 5835 5831 5828 5824 5820 5816 5812 5809 5805 5801 5799 5797 5796 5795 5795 5796 5796 5797 5800 5802 5805 5809 5812 5816 5819 5823 5826 5829 5833 5836 5839 5841 5844 5846 5848 5850 5852 5854 5856
5845 5843 5840 5837 5834 5830 5827 5823 5819 5815 5811 5806 5802 5798 5795 5793 5792 5791 5791 5791 5792 5793 5795 5797 5800 5804 5807 5810 5814 5818 5822 5825 5829 5832 5835 5838 5841 5844 5846 5848 5850 5852 5854
5844 5842 5840 5837 5833 5830 5826 5822 5818 5814 5809 5805 5801 5797 5793 5791 5789 5788 5788 5788 5788 5789 5791 5793 5796 5799 5802 5806 5809 5813 5817 5821 5824 5828 5831 5834 5838 5841 5843 5846 5848 5850 5853
5843 5841 5839 5836 5833 5829 5825 5821 5817 5813 5809 5804 5800 5796 5792 5789 5787 5786 5785 5785 5785 5786 5787 5789 5792 5795 5798 5801 5805 5808 5812 5816 5819 5824 5827 5831 5834 5837 5840 5843 5846 5848 5851
5843 5841 5838 5835 5832 5828 5825 5821 5817 5813 5808 5804 5800 5795 5792 5789 5786 5784 5783 5783 5782 5783 5784 5786 5788 5791 5794 5797 5801 5804 5808 5812 5815 5819 5823 5827 5830 5834 5837 5840 5843 5846 5848
5842 5840 5837 5835 5831 5828 5824 5821 5817 5812 5808 5804 5800 5795 5792 5789 5786 5784 5782 5781 5780 5780 5781 5783 5785 5788 5791 5794 5797 5800 5804 5807 5811 5815 5818 5822 5826 5830 5833 5836 5839 5842 5845
5841 5839 5837 5834 5831 5827 5824 5820 5816 5812 5808 5804 5800 5796 5792 5789 5786 5783 5781 5780 5779 5779 5779 5781 5783 5785 5788 5791 5794 5797 5800 5804 5807 5810 5814 5817 5821 5825 5829 5832 5836 5839 5842
5840 5838 5836 5833 5830 5827 5824 5820 5816 5813 5809 5805 5801 5797 5793 5789 5786 5783 5781 5780 5779 5778 5778 5779 5780 5783 5785 5788 5790 5793 5796 5800 5803 5806 5810 5813 5817 5821 5824 5828 5831 5835 5838
5839 5837 5835 5832 5830 5826 5823 5820 5816 5813 5809 5805 5801 5797 5794 5790 5787 5784 5782 5780 5779 5778 5778 5778 5779 5781 5783 5785 5787 5789 5792 5795 5798 5802 5805 5809 5812 5816 5819 5823 5826 5830 5833
5838 5836 5834 5832 5829 5826 5823 5820 5816 5813 5809 5806 5802 5798 5795 5791 5788 5786 5783 5781 5779 5779 5778 5778 5779 5780 5781 5782 5784 5786 5789 5791 5794 5797 5801 5804 5807 5811 5814 5817 5821 5825 5828
5837 5835 5833 5831 5828 5825 5822 5819 5816 5813 5809 5806 5803 5799 5796 5793 5790 5787 5785 5782 5781 5779 5779 5778 5778 5779 5780 5780 5782 5784 5786 5788 5790 5793 5796 5799 5802 5806 5809 5812 5815 5819 5822